Lakehurst NAS, NJ

1:58 AM EDT on March 23, 2017 (GMT -0400)
Lakehurst Naes

Weather History for KNEL - May, 2014

Change the Weather History Date:

Thursday, May 1, 2014

  Actual Average Record
Temperature  
Mean Temperature 68 °F -  
Max Temperature 59 °F 65 °F 86 °F (2001)
Min Temperature 60 °F 47 °F 43 °F (2013)
Cooling Degree Days 4    
Growing Degree Days 18 (Base 50)    
Moisture  
Dew Point 60 °F    
Average Humidity 84    
Maximum Humidity 100    
Minimum Humidity 45    
Precipitation  
Precipitation 0.09 in - - ()
Sea Level Pressure  
Sea Level Pressure 29.79 in    
Wind  
Wind Speed 10 mph (SW)    
Max Wind Speed 14 mph    
Max Gust Speed 30 mph    
Averages and records for this station are not official NWS values.
T = Trace of Precipitation, MM = Missing Value Source: NWS Daily Summary

Daily Weather History Graph

Daily Weather History Graph

Search for Another Location

Airport or City:

Trip Planner

Search our weather history database for the weather conditions in past years. The results will help you decide how hot, cold, wet, or windy it might be!

Date:

Astronomy

May. 01, 2014 Rise Set
Actual Time 5:57 AM EDT 7:52 PM EDT
Civil Twilight 5:28 AM EDT 8:21 PM EDT
Nautical Twilight 4:52 AM EDT 8:57 PM EDT
Astronomical Twilight 4:14 AM EDT 9:36 PM EDT
Moon 7:43 AM EDT (5/1) 10:23 PM EDT (5/1)
Length of Visible Light 14h 53m
Length of Day
13h 54m
Waxing Crescent, 6% of the Moon is Illuminated
May 1
Waxing Crescent
May 6
First Quarter
May 14
Full
May 21
Last Quarter
May 28
New

Hourly Weather History & Observations

Time (EDT) Temp. Dew Point Humidity Pressure Visibility Wind Dir Wind Speed Gust Speed Precip Events Conditions
12:27 AM 60.8 °F 60.8 °F 100% 29.93 in - South 10.4 mph 19.6 mph 0.00 in   Overcast
1:00 AM 60.1 °F 60.1 °F 100% 29.91 in - South 11.5 mph - 0.00 in Rain Light Rain
1:13 AM 60.8 °F 60.8 °F 100% 29.90 in - South 11.5 mph - 0.00 in Rain Light Rain
1:51 AM 60.8 °F 60.8 °F 100% 29.88 in - South 10.4 mph 20.7 mph 0.00 in   Overcast
2:00 AM 60.1 °F 60.1 °F 100% 29.87 in - South 12.7 mph - 0.00 in   Overcast
3:00 AM 61.0 °F 60.1 °F 97% 29.84 in - South 12.7 mph 25.3 mph N/A   Overcast
4:00 AM 61.0 °F 61.0 °F 100% 29.83 in - South 12.7 mph 20.7 mph N/A   Overcast
5:00 AM 62.1 °F 62.1 °F 100% 29.81 in - SSW 11.5 mph - N/A   Overcast
6:00 AM 63.0 °F 62.1 °F 97% 29.81 in - South 13.8 mph - N/A   Overcast
7:00 AM 63.0 °F 62.1 °F 97% 29.81 in - SSW 5.8 mph - N/A   Overcast
8:00 AM 64.9 °F 64.0 °F 97% 29.80 in - South 10.4 mph - 0.00 in   Overcast
8:34 AM 66.2 °F 64.4 °F 94% 29.80 in - SSW 8.1 mph - N/A   Scattered Clouds
9:00 AM 66.9 °F 64.0 °F 90% 29.79 in - South 8.1 mph - N/A   Scattered Clouds
9:26 AM 66.2 °F 64.4 °F 94% 29.80 in - South 8.1 mph - N/A   Mostly Cloudy
10:00 AM 66.2 °F 62.6 °F 88% 29.81 in - SSW 9.2 mph - N/A   Mostly Cloudy
10:06 AM 66.0 °F 64.0 °F 93% 29.81 in - South 8.1 mph - N/A   Overcast
10:19 AM 66.2 °F 64.4 °F 94% 29.81 in - West 10.4 mph - N/A   Overcast
10:28 AM 66.2 °F 62.6 °F 88% 29.81 in - WSW 6.9 mph - N/A   Overcast
10:37 AM 68.0 °F 62.6 °F 83% 29.81 in - West 10.4 mph - N/A   Overcast
11:00 AM 68.0 °F 62.1 °F 81% 29.80 in - West 12.7 mph - N/A   Overcast
11:39 AM 69.8 °F 60.8 °F 73% 29.79 in - West 9.2 mph - N/A   Scattered Clouds
12:00 PM 71.1 °F 59.0 °F 66% 29.78 in - West 12.7 mph - N/A   Scattered Clouds
1:00 PM 73.9 °F 57.9 °F 57% 29.77 in - West 11.5 mph 16.1 mph N/A   Partly Cloudy
2:00 PM 73.9 °F 57.0 °F 55% 29.75 in - WNW 6.9 mph - N/A   Mostly Cloudy
3:00 PM 75.0 °F 57.0 °F 53% 29.73 in - WNW 9.2 mph - N/A   Mostly Cloudy
4:00 PM 77.0 °F 54.0 °F 45% 29.72 in - West 10.4 mph - N/A   Overcast
5:00 PM 77.0 °F 55.0 °F 47% 29.71 in - SSW 9.2 mph - N/A   Mostly Cloudy
6:00 PM 75.9 °F 54.0 °F 46% 29.69 in - SW 8.1 mph - N/A   Clear
8:00 PM 69.1 °F 60.1 °F 73% 29.70 in - South 5.8 mph - N/A   Clear
9:00 PM 64.0 °F 59.0 °F 84% 29.70 in - South 3.5 mph - N/A   Clear
10:00 PM 62.1 °F 59.0 °F 90% 29.70 in - South 3.5 mph - N/A   Partly Cloudy
10:40 PM 62.6 °F 57.2 °F 82% 29.74 in - WNW 13.8 mph 29.9 mph 0.09 in Rain , Thunderstorm Heavy Thunderstorms and Rain
11:00 PM 61.0 °F 59.0 °F 93% 29.72 in - WNW 5.8 mph - 0.09 in Thunderstorm Thunderstorm
11:09 PM 60.8 °F 59.0 °F 94% 29.72 in - Calm Calm - 0.00 in Rain Light Rain